ジョンソン彗星

C/2015 V2 ( Johnson )

English version
Home page
Updated on May 21, 2018

---------------------------------------------------------------------

・ プロフィール

発見日 2015年11月3日
発見光度 17.1等
発見者 J. A. Johnson (Catalina Sky Survey)

・ 写真集

・ 軌道要素

Epoch 2017 June 16.0 TT = JDT 2457920.5
T 2017 June 12.33930 TT                                 MPCW
q   1.6369851            (2000.0)            P               Q
z  -0.0010486      Peri.  164.89538     -0.49024377     +0.49432026
                   Node    69.84900     -0.85774614     -0.12744030
e   1.0017166      Incl.   49.87641     -0.15470164     -0.85988746
From 5819 observations 2015 Jan. 11-2018 Mar. 4, mean residual 0".7.
     Nongravitational parameters A1 = +2.55, A2 = -0.5948.

・ 星図

・ 光度変化

        m1 = 6.0 + 5 logΔ + 9.0 log r

---------------------------------------------------------------------

軌道要素はM.P.E.C. 2018-F152に掲載されたものです。
星図はステラナビゲータ Ver.8 (アストロアーツ) で作成したものです。
光度グラフはComet for Windowsで作成したものです。

---------------------------------------------------------------------

Copyright(C) Seiichi Yoshida (comet@aerith.net). All rights reserved.